Regional Weather Roundup
Issued by NWS

Home | Current Version | Previous Version | Graphics & Text | Print | Product List | Glossary On
Versions: 1 2 3 4 5 6 7 8 9 10 11 12 13 14 15 16 17 18 19 20 21 22 23 24 25 26 27 28 29 30 31 32 33 34 35 36 37 38 39 40 41 42 43 44 45 46 47 48 49 50
000
ASUS43 KLMK 241702
RWRKY
KENTUCKY REGIONAL WEATHER ROUNDUP
NATIONAL WEATHER SERVICE LOUISVILLE KY
100 PM EDT MON APR 24 2017

NOTE "FAIR" INDICATES FEW OR NO CLOUDS BELOW 12,000 FEET
WITH NO SIGNIFICANT WEATHER AND/OR OBSTRUCTIONS TO VISIBILITY.

KYZ001>023-026-027-061>063-070>075-241800-
WESTERN AND SOUTH CENTRAL KENTUCKY

CITY           SKY/WX    TMP DP  RH WIND       PRES   REMARKS
PADUCAH        SUNNY     71  48  43 NE10G18   29.87F
HENDERSON      SUNNY     69  45  41 NE6       29.88F
OWENSBORO      SUNNY     69  48  47 NE12G18   29.87F
HOPKINSVILLE   SUNNY     64  53  66 N6        29.86F
BOWLING GREEN  CLOUDY    65  54  67 W6        29.85F
GLASGOW        NOT AVBL
$$

KYZ024-025-028>034-038-045-046-053-241800-
NORTH CENTRAL KENTUCKY

CITY           SKY/WX    TMP DP  RH WIND       PRES   REMARKS
LOUISVILLE/SDF MOSUNNY   72  51  47 E12       29.84F
LOUISVILLE/LOU SUNNY     72  52  49 NE8       29.85F
FORT KNOX      SUNNY     68  51  55 NE6       29.83F
$$

KYZ035>037-039>044-047>052-055>060-089>105-241800-
NORTHEAST KENTUCKY

CITY           SKY/WX    TMP DP  RH WIND       PRES   REMARKS
LEXINGTON      MOSUNNY   68  52  56 NE13      29.85F
COVINGTON      SUNNY     68  43  40 NE13      29.89F
FRANKFORT      MOSUNNY   69  47  45 NE10      29.85F
$$

KYZ054-064>069-076>088-106>120-241800-
SOUTHEAST KENTUCKY

CITY           SKY/WX    TMP DP  RH WIND       PRES   REMARKS
JACKSON        CLOUDY    59  50  72 VRB6      29.87F
LONDON         CLOUDY    57  49  74 N8        29.86F
SOMERSET       CLOUDY    59  50  72 E5        29.87F
MIDDLESBORO    CLOUDY    65  53  65 CALM      29.82F
MONTICELLO     CLOUDY    58  53  84 N12G22    29.87F
$$





USA.gov is the U.S. government's official web portal to all federal, state and local government web resources and services.